Location: ?????
(41.9839°N, 44.4791°E)
Time: 12:17:41
(UTC+00:00)

Daily predictions for brighter satellites

Satellite Brightness Start Highest point End
(mag) Time Altitude Azimuth Time Altitude Azimuth Time Altitude Azimuth
CZ-4B DEB 4.2 13:52:43 10° SSE 13:58:11 80° ENE 14:03:40 10° NNW
Cosmos 2278 Rocket 4.2 13:54:04 10° NW 13:59:09 35° WSW 14:04:13 10° SSW
CZ-4C R/B 3.1 14:01:15 10° NNE 14:04:54 88° WNW 14:08:29 10° SSW
Cosmos 2285 Rocket 4.1 13:58:41 10° NNW 14:04:58 56° ENE 14:11:10 10° SE
USA 267 4.4 14:00:33 10° ENE 14:05:37 25° N 14:10:43 10° NW
CORIOLIS 4.4 14:04:05 10° SE 14:09:15 48° ENE 14:14:29 10° N
PAYLOAD B 4.3 14:05:23 10° SSE 14:10:58 84° ENE 14:16:34 10° NNW
USA 81 4.3 14:06:17 10° N 14:11:23 46° E 14:16:26 10° SSE
COSMO-SKYMED 1 4.0 14:10:03 10° NE 14:13:09 19° E 14:16:13 10° SE
H-2A R/B 3.8 14:14:41 10° ENE 14:14:58 10° ENE 14:15:16 10° NE
Cosmos 2181 Rocket 4.1 14:10:34 10° S 14:16:54 66° E 14:23:11 10° NNE
BREEZE-M R/B 2.7 14:13:15 10° WNW 14:17:58 84° NNE 14:20:03 10° ESE
Meteor 1-20 Rocket 4.3 14:16:10 10° N 14:22:02 72° E 14:27:48 10° SSE
X-37B 0.5 14:19:11 10° WSW 14:22:22 89° N 14:24:55 15° ENE
Cosmos 2237 Rocket 4.1 14:19:08 10° WSW 14:23:46 26° NW 14:28:26 10° N
Cosmos 1689 Rocket 4.4 14:25:07 10° ESE 14:25:07 10° ESE 14:25:09 10° ESE
Meteor 1-4 Rocket 2.8 14:21:04 10° S 14:24:31 45° E 14:27:56 10° NNE
Cosmos 1328 Rocket 3.5 14:20:25 10° S 14:24:41 64° E 14:28:59 10° NNE
NOAA 11 4.3 14:19:30 10° SE 14:24:43 50° ENE 14:29:58 10° N
Cosmos 1812 4.4 14:23:12 10° ESE 14:25:26 15° E 14:26:19 14° ENE
CZ-4B R/B 3.1 14:20:28 10° SSE 14:25:47 80° ENE 14:31:06 10° NNW
Cosmos 1939 Rocket 3.8 14:23:07 10° SE 14:26:20 25° ENE 14:29:35 10° NNE
Meteor 1-26 Rocket 4.4 14:21:28 10° S 14:27:24 64° E 14:33:21 10° NNE
Cosmos 1603 4.3 14:23:03 10° S 14:28:06 36° ESE 14:33:05 10° NE
CZ-4 R/B 3.2 14:29:24 13° NE 14:29:24 13° NE 14:30:38 10° NNE
Cosmos 1933 Rocket 4.3 14:25:40 10° NNE 14:29:41 31° ENE 14:33:39 10° SE
Cosmos 1666 Rocket 3.8 14:26:22 10° N 14:30:48 77° W 14:35:14 10° S
CENTAUR R/B 3.8 14:27:11 10° SE 14:30:51 17° ESE 14:33:16 14° ENE
ADEOS Rocket 4.3 14:23:49 10° N 14:31:22 56° WNW 14:38:47 10° SW
Cosmos 44 4.0 14:26:12 10° NW 14:31:30 67° WSW 14:36:51 10° SSE
Cosmos 1943 3.9 14:26:38 10° SSE 14:31:39 34° ESE 14:36:16 12° NE
H-2A R/B 3.5 14:29:54 10° S 14:34:03 51° W 14:38:04 10° NNW
Cosmos 2369 Rocket 2.5 14:30:08 10° NNW 14:35:35 45° ENE 14:40:59 10° SE
Cosmos 1602 3.8 14:32:24 10° N 14:36:16 54° E 14:40:03 10° SSE
NOAA 12 4.2 14:30:56 10° SSE 14:36:16 87° WSW 14:41:37 10° NNW
Cosmos 1538 Rocket 4.1 14:31:27 10° S 14:36:44 65° ESE 14:42:04 10° NNE
Cosmos 1943 Rocket 2.1 14:31:54 10° NNW 14:37:29 75° ENE 14:43:04 10° SSE
SL-23 DEB 4.1 14:37:26 10° WSW 14:40:54 75° NNW 14:44:49 17° NE
CZ-2D R/B 4.1 14:41:04 10° SE 14:44:20 28° ENE 14:47:37 10° N
H-2A R/B 3.1 14:41:17 10° N 14:45:21 47° WNW 14:49:29 10° SW
Okean O Rocket 1.9 14:42:22 10° S 14:46:42 71° WSW 14:51:06 10° NNW
Okean-O 3.6 14:44:40 10° ESE 14:48:16 25° ENE 14:51:51 10° NNE
Cosmos 1782 2.7 14:46:03 10° S 14:50:00 88° E 14:54:01 10° N
Cosmos 2218 Rocket 4.1 14:47:43 10° N 14:53:53 80° W 15:00:03 10° S
Cosmos 2366 rocket 4.1 14:48:47 10° N 14:54:58 82° W 15:01:06 10° S
Cosmos 1633 Rocket 4.0 14:50:49 10° NNW 14:55:02 50° W 14:59:13 10° SSW
ISS -1.8 14:57:32 10° NW 14:59:51 17° N 15:00:00 17° NNE
FALCON 9 R/B 2.5 14:59:18 10° SW 15:00:54 17° S 15:01:40 15° SSE
SKYMED 2 3.5 14:57:17 11° NNE 15:01:29 62° E 15:05:46 10° S
NOSS 3-2 (A) 3.5 14:57:50 10° SSW 15:03:11 51° ESE 15:06:35 24° NE
ERS-2 2.1 15:01:35 12° NNE 15:04:59 83° WNW 15:08:38 10° SSW
Feng Yun 1-1 Rocket 4.2 15:06:12 10° SSE 15:11:58 88° ENE 15:17:37 10° NNW
Lacrosse 5 rocket 3.4 15:11:15 10° WNW 15:13:17 14° NNW 15:14:37 12° N
USA 215 3.3 15:11:59 26° ENE 15:15:48 64° SE 15:22:17 10° SW
SL-16 R/B 4.0 15:12:06 10° WSW 15:16:49 27° NW 15:21:33 10° N
USA 238 DEB 3.6 15:15:51 10° SSW 15:22:17 64° ESE 15:25:38 31° NE
USA 238 3.6 15:15:56 10° SSW 15:22:23 64° ESE 15:25:42 31° NE
CZ-4B R/B 3.2 15:23:17 11° NNW 15:25:50 29° WNW 15:28:37 10° SW
YAOGAN 1 3.8 15:32:09 28° N 15:32:09 28° N 15:34:22 10° N
Cosmos 1656 Rocket 3.5 15:25:57 10° NNW 15:31:35 70° ENE 15:35:43 18° SE
Cosmos 1500 3.3 15:29:04 10° NNW 15:32:53 72° W 15:36:42 10° S
NOAA 15 4.5 15:30:05 10° SSE 15:35:19 68° ENE 15:40:34 10° N
MOS 1 Rocket 3.5 15:34:08 28° NNE 15:37:06 71° E 15:42:25 10° S
CZ-2C R/B 2.7 15:33:16 10° SSE 15:38:17 82° ENE 15:43:08 10° N
USA 281 3.1 15:32:37 10° SE 15:39:06 66° ENE 15:45:37 10° NNW
Cosmos 1934 Rocket 4.0 15:32:55 10° N 15:39:09 56° ENE 15:45:18 10° SSE
Cosmos 158 Rocket 3.8 15:34:20 10° SSW 15:39:19 83° WNW 15:41:04 41° NNE
Cosmos 2263 4.2 15:34:11 10° NNW 15:39:48 78° WSW 15:45:22 10° SSE
Cosmos 923 Rocket 4.0 15:36:55 10° SSW 15:42:07 78° WNW 15:44:26 34° N
Nadezhda 3 Rocket 4.1 15:37:30 10° SSW 15:43:51 77° W 15:50:16 10° N
CSL-04 Debris 4.3 15:45:47 53° NE 15:45:47 53° NE 15:50:28 10° N
USA 267 3.6 15:46:49 42° NE 15:47:35 44° NNE 15:53:43 10° NW
Cosmos 1238 Rocket 3.2 15:43:47 10° N 15:47:55 79° W 15:52:58 10° S
COSMO-SKYMED 1 3.9 15:45:53 13° N 15:49:26 39° WNW 15:53:28 10° SW
H-2A R/B 2.3 15:54:40 54° N 15:54:40 54° N 15:58:40 10° N
Cosmos 2228 Rocket 4.0 15:50:09 10° SSW 15:54:33 49° WNW 15:56:56 25° NNW
Cosmos 1821 Rocket 4.3 15:48:40 10° NNW 15:54:52 66° W 16:01:08 10° S
NOSS 3-3 (A) 4.4 15:49:10 10° NNW 15:56:48 77° NE 16:00:25 38° SE
NOSS 3-3 (C) 4.4 15:49:15 10° NNW 15:56:54 76° NE 16:00:25 39° SE
X-37B 3.3 15:56:05 10° WNW 15:57:12 19° WNW 15:57:12 19° WNW
Meteor 1-11 Rocket 3.7 15:54:26 10° N 16:00:17 89° E 16:06:12 10° S
Cosmos 1812 4.2 15:57:21 10° SW 16:00:52 34° WNW 16:01:27 32° WNW
CZ-4 R/B 3.3 16:05:25 22° NNW 16:05:25 22° NNW 16:07:02 10° NNW
Cosmos 44 Rocket 3.6 16:01:44 10° NW 16:06:21 70° NW 16:06:21 70° NW
Cosmos 1680 Rocket 3.9 16:03:52 10° SSW 16:09:04 60° WNW 16:09:56 52° NNW
Lacrosse 4 Rocket 3.3 16:08:57 10° SSW 16:10:38 24° SW 16:10:38 24° SW
Cosmos 2369 Rocket 4.2 16:14:42 10° NW 16:19:19 26° WSW 16:23:53 10° SSW
CENTAUR R/B 2.5 16:14:35 10° SW 16:20:23 77° NW 16:20:30 77° NW
Okean-O 4.3 16:20:38 10° SSW 16:24:35 31° W 16:28:33 10° NNW
NOSS 3-2 (C) 3.6 16:22:44 10° SW 16:27:40 63° W 16:27:40 63° W
USA 215 4.1 16:59:21 43° NW 16:59:21 43° NW 17:04:46 10° W
